Time,TemperatureF,DewpointF,PressureIn,WindDirection,WindDirectionDegrees,WindSpeedMPH,WindSpeedGustMPH,Humidity,HourlyPrecipIn,Conditions,Clouds,dailyrainin,SoftwareType,DateUTC
2013-05-13 00:00:00,52.3,17.5,30.01,NNW,338,3.0,3.0,25,0.00,,,0.00,VWS V12.07,2013-05-13 05:00:00,
2013-05-13 00:15:00,52.3,17.5,30.01,NNW,338,3.0,3.0,25,0.00,,,0.00,VWS V12.07,2013-05-13 05:15:00,
2013-05-13 00:30:00,52.3,17.5,30.01,NNW,338,3.0,3.0,25,0.00,,,0.00,VWS V12.07,2013-05-13 05:30:00,
2013-05-13 00:45:00,52.3,17.5,30.01,NNW,338,3.0,3.0,25,0.00,,,0.00,VWS V12.07,2013-05-13 05:45:00,
2013-05-13 01:00:00,52.3,17.5,30.01,NNW,338,3.0,3.0,25,0.00,,,0.00,VWS V12.07,2013-05-13 06:00:00,
2013-05-13 01:15:00,52.3,17.5,30.01,NNW,338,3.0,3.0,25,0.00,,,0.00,VWS V12.07,2013-05-13 06:15:00,
2013-05-13 01:30:00,52.3,17.5,30.01,NNW,338,3.0,3.0,25,0.00,,,0.00,VWS V12.07,2013-05-13 06:30:00,
2013-05-13 01:45:00,52.3,17.5,30.01,NNW,338,3.0,3.0,25,0.00,,,0.00,VWS V12.07,2013-05-13 06:45:00,
2013-05-13 02:00:00,52.3,17.5,30.00,NNW,338,3.0,3.0,25,0.00,,,0.00,VWS V12.07,2013-05-13 07:00:00,
2013-05-13 02:15:00,52.3,17.5,30.00,NNW,338,3.0,3.0,25,0.00,,,0.00,VWS V12.07,2013-05-13 07:15:00,
2013-05-13 02:30:00,52.3,17.5,30.01,NNW,338,3.0,3.0,25,0.00,,,0.00,VWS V12.07,2013-05-13 07:30:00,
2013-05-13 02:45:00,52.3,17.5,30.00,NNW,338,3.0,3.0,25,0.00,,,0.00,VWS V12.07,2013-05-13 07:45:00,
2013-05-13 03:00:00,52.3,17.5,30.01,NNW,338,3.0,3.0,25,0.00,,,0.00,VWS V12.07,2013-05-13 08:00:00,
2013-05-13 03:18:00,52.3,17.5,30.01,NNW,338,3.0,3.0,25,0.00,,,0.00,VWS V12.07,2013-05-13 08:18:00,
2013-05-13 03:30:00,52.3,17.5,30.01,NNW,338,3.0,3.0,25,0.00,,,0.00,VWS V12.07,2013-05-13 08:30:00,
2013-05-13 03:45:00,52.3,17.5,30.01,NNW,338,3.0,3.0,25,0.00,,,0.00,VWS V12.07,2013-05-13 08:45:00,
2013-05-13 04:00:00,52.3,17.5,30.01,NNW,338,3.0,3.0,25,0.00,,,0.00,VWS V12.07,2013-05-13 09:00:00,
2013-05-13 04:30:00,52.3,17.5,30.00,NNW,338,3.0,3.0,25,0.00,,,0.00,VWS V12.07,2013-05-13 09:30:00,
2013-05-13 04:45:00,52.3,17.5,30.01,NNW,338,3.0,3.0,25,0.00,,,0.00,VWS V12.07,2013-05-13 09:45:00,
2013-05-13 05:00:00,52.3,17.5,30.01,NNW,338,3.0,3.0,25,0.00,,,0.00,VWS V12.07,2013-05-13 10:00:00,
2013-05-13 05:30:00,52.3,17.5,30.02,NNW,338,3.0,3.0,25,0.00,,,0.00,VWS V12.07,2013-05-13 10:30:00,
2013-05-13 05:45:00,52.3,17.5,30.02,NNW,338,3.0,3.0,25,0.00,,,0.00,VWS V12.07,2013-05-13 10:45:00,
2013-05-13 06:00:00,52.3,17.5,30.01,NNW,338,3.0,3.0,25,0.00,,,0.00,VWS V12.07,2013-05-13 11:00:00,
2013-05-13 06:15:00,52.3,17.5,30.01,NNW,338,3.0,3.0,25,0.00,,,0.00,VWS V12.07,2013-05-13 11:15:00,
2013-05-13 06:30:00,52.3,17.5,30.02,NNW,338,3.0,3.0,25,0.00,,,0.00,VWS V12.07,2013-05-13 11:30:00,
2013-05-13 06:45:00,52.3,17.5,30.02,NNW,338,3.0,3.0,25,0.00,,,0.00,VWS V12.07,2013-05-13 11:45:00,
2013-05-13 07:00:00,52.3,17.5,30.02,NNW,338,3.0,3.0,25,0.00,,,0.00,VWS V12.07,2013-05-13 12:00:00,
2013-05-13 07:18:00,52.3,17.5,30.03,NNW,338,3.0,3.0,25,0.00,,,0.00,VWS V12.07,2013-05-13 12:18:00,
2013-05-13 07:30:00,52.3,17.5,30.03,NNW,338,3.0,3.0,25,0.00,,,0.00,VWS V12.07,2013-05-13 12:30:00,
2013-05-13 07:45:00,52.3,17.5,30.03,NNW,338,3.0,3.0,25,0.00,,,0.00,VWS V12.07,2013-05-13 12:45:00,
2013-05-13 08:00:00,52.3,17.5,30.03,NNW,338,3.0,3.0,25,0.00,,,0.00,VWS V12.07,2013-05-13 13:00:00,
2013-05-13 08:30:00,52.3,17.5,30.03,NNW,338,3.0,3.0,25,0.00,,,0.00,VWS V12.07,2013-05-13 13:30:00,
2013-05-13 08:45:00,52.3,17.5,30.02,NNW,338,3.0,3.0,25,0.00,,,0.00,VWS V12.07,2013-05-13 13:45:00,
2013-05-13 09:00:00,52.3,17.5,30.02,NNW,338,3.0,3.0,25,0.00,,,0.00,VWS V12.07,2013-05-13 14:00:00,
2013-05-13 09:30:00,52.3,17.5,30.01,NNW,338,3.0,3.0,25,0.00,,,0.00,VWS V12.07,2013-05-13 14:30:00,
2013-05-13 09:45:00,52.3,17.5,30.01,NNW,338,3.0,3.0,25,0.00,,,0.00,VWS V12.07,2013-05-13 14:45:00,
2013-05-13 10:00:00,52.3,17.5,30.01,NNW,338,3.0,3.0,25,0.00,,,0.00,VWS V12.07,2013-05-13 15:00:00,
2013-05-13 10:30:00,52.3,17.5,29.99,NNW,338,3.0,3.0,25,0.00,,,0.00,VWS V12.07,2013-05-13 15:30:00,
2013-05-13 10:45:00,56.5,21.1,29.99,SW,222,9.0,12.0,25,0.00,,,0.00,VWS V12.07,2013-05-13 15:45:00,
2013-05-13 11:00:00,57.5,21.0,29.99,SSW,202,5.0,13.0,24,0.00,,,0.00,VWS V12.07,2013-05-13 16:00:00,
2013-05-13 11:30:00,59.3,19.4,29.97,South,190,8.0,12.0,21,0.00,,,0.00,VWS V12.07,2013-05-13 16:30:00,
2013-05-13 11:45:00,59.5,20.6,29.97,SE,130,2.0,12.0,22,0.00,,,0.00,VWS V12.07,2013-05-13 16:45:00,
2013-05-13 12:00:00,60.5,20.4,29.95,ESE,117,4.0,14.0,21,0.00,,,0.00,VWS V12.07,2013-05-13 17:00:00,
2013-05-13 12:30:00,61.0,20.8,29.93,SSE,160,4.0,21.0,21,0.00,,,0.00,VWS V12.07,2013-05-13 17:30:00,
2013-05-13 12:45:00,62.1,21.7,29.92,East,84,5.0,14.0,21,0.00,,,0.00,VWS V12.07,2013-05-13 17:45:00,
2013-05-13 13:00:00,62.7,23.3,29.91,SSE,147,9.0,14.0,22,0.00,,,0.00,VWS V12.07,2013-05-13 18:00:00,
2013-05-13 13:30:00,62.0,21.6,29.87,South,187,5.0,6.0,21,0.00,,,0.00,VWS V12.07,2013-05-13 18:30:00,
2013-05-13 13:45:00,63.5,22.9,29.88,SE,143,7.0,18.0,21,0.00,,,0.00,VWS V12.07,2013-05-13 18:45:00,
2013-05-13 14:00:00,62.0,21.6,29.88,South,181,10.0,18.0,21,0.00,,,0.00,VWS V12.07,2013-05-13 19:00:00,
2013-05-13 14:30:00,62.3,25.1,29.87,SE,143,6.0,15.0,24,0.00,,,0.00,VWS V12.07,2013-05-13 19:30:00,
2013-05-13 14:45:00,62.0,25.8,29.87,SSE,167,4.0,17.0,25,0.00,,,0.00,VWS V12.07,2013-05-13 19:45:00,
2013-05-13 15:00:00,61.8,25.6,29.86,South,183,12.0,17.0,25,0.00,,,0.00,VWS V12.07,2013-05-13 20:00:00,
2013-05-13 15:30:00,59.5,33.2,29.82,SE,139,3.0,4.0,37,0.00,,,0.00,VWS V12.07,2013-05-13 20:30:00,
2013-05-13 15:45:00,58.6,32.4,29.85,SSW,192,6.0,16.0,37,0.00,,,0.00,VWS V12.07,2013-05-13 20:45:00,
2013-05-13 16:00:00,59.3,33.7,29.84,South,175,4.0,16.0,38,0.00,,,0.00,VWS V12.07,2013-05-13 21:00:00,
2013-05-13 16:30:00,59.5,32.5,29.82,SE,146,10.0,18.0,36,0.00,,,0.00,VWS V12.07,2013-05-13 21:30:00,
2013-05-13 16:45:00,59.5,32.5,29.81,South,181,6.0,17.0,36,0.00,,,0.00,VWS V12.07,2013-05-13 21:45:00,
2013-05-13 17:00:00,59.6,32.6,29.80,South,186,5.0,18.0,36,0.00,,,0.00,VWS V12.07,2013-05-13 22:00:00,
2013-05-13 17:15:00,60.2,33.2,29.79,SE,141,4.0,13.0,36,0.00,,,0.00,VWS V12.07,2013-05-13 22:15:00,
2013-05-13 17:30:00,60.2,33.2,29.79,SE,133,13.0,20.0,36,0.00,,,0.00,VWS V12.07,2013-05-13 22:30:00,
2013-05-13 17:45:00,60.5,32.7,29.79,South,181,12.0,21.0,35,0.00,,,0.00,VWS V12.07,2013-05-13 22:45:00,
2013-05-13 18:00:00,61.0,33.2,29.78,SSW,196,12.0,21.0,35,0.00,,,0.00,VWS V12.07,2013-05-13 23:00:00,
2013-05-13 18:15:00,61.0,33.2,29.78,SSW,201,9.0,18.0,35,0.00,,,0.00,VWS V12.07,2013-05-13 23:15:00,
2013-05-13 18:30:00,61.0,33.9,29.77,SE,140,9.0,18.0,36,0.00,,,0.00,VWS V12.07,2013-05-13 23:30:00,
2013-05-13 18:45:00,61.0,33.9,29.77,SSW,199,11.0,18.0,36,0.00,,,0.00,VWS V12.07,2013-05-13 23:45:00,
2013-05-13 19:00:00,60.9,34.5,29.75,SSE,168,7.0,18.0,37,0.00,,,0.00,VWS V12.07,2013-05-14 00:00:00,
2013-05-13 19:30:00,61.0,35.2,29.74,SSE,153,16.0,19.0,38,0.00,,,0.00,VWS V12.07,2013-05-14 00:30:00,
2013-05-13 19:45:00,60.9,35.1,29.73,South,169,6.0,17.0,38,0.00,,,0.00,VWS V12.07,2013-05-14 00:45:00,
2013-05-13 20:00:00,60.5,34.8,29.72,SE,137,6.0,17.0,38,0.00,,,0.00,VWS V12.07,2013-05-14 01:00:00,
2013-05-13 20:30:00,60.5,34.8,29.70,SE,137,6.0,6.0,38,0.00,,,0.00,VWS V12.07,2013-05-14 01:30:00,
2013-05-13 20:45:00,60.5,34.8,29.69,SE,137,6.0,6.0,38,0.00,,,0.00,VWS V12.07,2013-05-14 01:45:00,
2013-05-13 21:00:00,60.5,34.8,29.69,SE,137,6.0,6.0,38,0.00,,,0.00,VWS V12.07,2013-05-14 02:00:00,
2013-05-13 21:30:00,60.5,34.8,29.67,SE,137,6.0,6.0,38,0.00,,,0.00,VWS V12.07,2013-05-14 02:30:00,
2013-05-13 21:45:00,60.5,34.8,29.66,SE,137,6.0,6.0,38,0.00,,,0.00,VWS V12.07,2013-05-14 02:45:00,
2013-05-13 22:00:00,60.5,34.8,29.66,SE,137,6.0,6.0,38,0.00,,,0.00,VWS V12.07,2013-05-14 03:00:00,
2013-05-13 22:30:00,60.5,34.8,29.65,SE,137,6.0,6.0,38,0.00,,,0.00,VWS V12.07,2013-05-14 03:30:00,
2013-05-13 22:45:00,60.5,34.8,29.64,SE,137,6.0,6.0,38,0.00,,,0.00,VWS V12.07,2013-05-14 03:45:00,
2013-05-13 23:00:00,60.5,34.8,29.64,SE,137,6.0,6.0,38,0.00,,,0.00,VWS V12.07,2013-05-14 04:00:00,
2013-05-13 23:30:00,60.5,34.8,29.63,SE,137,6.0,6.0,38,0.00,,,0.00,VWS V12.07,2013-05-14 04:30:00,
2013-05-13 23:45:00,60.5,34.8,29.62,SE,137,6.0,6.0,38,0.00,,,0.00,VWS V12.07,2013-05-14 04:45:00,